Zurück zum Katalog

STARLINK-3985

AktivKommunikationVLEO
NORAD 52644·PAYLOAD·🇺🇸 United States

Gestartet May 14, 2022 von Cape Canaveral Space Force Station

Loading…

Nächste Überflüge (nächste 24 Stunden)

TLE

AktuellSource: CelesTrak SupGP

Epoche: Sep 15, 2026, 01:31 UTC

1 52644C 22052AY  26258.06368056  .00051717  00000+0  14796-2 0  2586
2 52644  53.1567 117.8177 0001323  87.0897   5.9864 15.35373631    10

Verfolge STARLINK-3985 in Echtzeit mit AllMySat

Download on the App Store